Location: Tel Aviv
(32.0670°N, 34.7670°E)
Time: 11:20:15
(UTC+03:00)

Transit 2A - Pass Details

Date: 28 January 2022
Orbit: 598 x 960 km, 66.7° (Epoch: 20 May)

Event Time Altitude Azimuth Distance (km) Brightness Sun altitude
Rises 11:29:32 0° 254° (WSW) 3,518 9.5 39.4°
Reaches altitude 10° 11:33:08 10° 275° (W) 2,631 8.8 39.5°
Maximum altitude 11:36:44 16° 311° (NW) 2,271 8.3 39.6°
Drops below altitude 10° 11:40:26 10° 347° (NNW) 2,694 8.5 39.7°
Sets 11:44:12 0° 9° (N) 3,646 9.0 39.7°
